[[{"header":{"parameterUnit":"m.s-1","parameterCategory":1,"la1":30.2992,"la2":30.254,"lo1":-89.0895,"lo2":-89.0443,"dy":0.0025,"dx":0.0025,"nx":19,"ny":19,"refTime":"2026-03-07T09:00:00:Z","depth":0,"parameterNumber":2,"parameterNumberName":"U-component_of_WINDS"},"data":[0,0,0,-4.1332,-4.1335,-4.1498,-4.1498,-4.1696,-4.1698,0,0,0,0,0,0,0,0,0,0,0,-4.1276,-4.1277,-4.1332,-4.1335,-4.1498,-4.1498,-4.1696,-4.1698,0,0,0,0,0,0,0,0,0,0,0,-4.1276,-4.1277,-4.1279,-4.1336,-4.1497,-4.1498,-4.1695,-4.1577,0,0,0,0,0,0,0,0,0,0,-4.1421,-4.1362,-4.1277,-4.1279,-4.1337,-4.1497,-4.1498,-4.1571,-4.1584,-4.1618,0,-4.1645,0,-4.1675,-4.171,-4.1711,0,0,0,-4.1341,-4.1351,-4.1402,-4.1279,-4.1338,-4.1497,-4.1426,-4.1578,-4.1593,-4.1635,-4.1648,-4.1656,-4.1678,-4.1711,-4.1712,-4.1887,-4.1888,0,0,-4.1332,-4.1302,-4.1391,-4.1411,-4.1384,-4.1421,-4.1431,-4.1587,-4.16,-4.1649,-4.1661,-4.1681,-4.1713,-4.1714,-4.1887,-4.1887,0,0,0,-4.1302,-4.1295,-4.1342,-4.1402,-4.1432,-4.1425,-4.1437,-4.1593,-4.1611,-4.1663,-4.1683,-4.1714,-4.1716,-4.1886,-4.1887,-4.1883,0,0,0,-4.1297,-4.1278,-4.1338,-4.1321,-4.1429,-4.1514,-4.1439,-4.16,-4.1619,-4.1682,-4.1714,-4.1718,-4.1886,-4.1887,-4.1882,-4.1885,0,0,0,-4.1268,-4.1275,-4.1296,-4.1319,-4.1388,-4.1513,-4.154,-4.1605,-4.1631,-4.1711,-4.1718,-4.1885,-4.1886,-4.1881,-4.1883,-4.1921,0,0,0,-4.1229,-4.129,-4.1295,-4.1373,-4.1386,-4.1509,-4.1539,-4.1633,-4.1701,-4.1715,-4.1886,-4.1887,-4.188,-4.1883,-4.1919,-4.1945,-4.1953,0,0,-4.1289,-4.1296,-4.1345,-4.1354,-4.1468,-4.1487,-4.1602,-4.1694,-4.173,-4.1833,-4.1838,-4.1882,-4.1883,-4.1921,-4.2015,-4.2021,0,0,0,-4.1354,-4.1387,-4.1425,-4.1488,-4.156,-4.1622,-4.17,-4.1734,-4.1823,-4.1776,-4.1908,-4.191,-4.1933,-4.1946,-4.1952,-4.1973,-4.1893,-4.1892,-4.1892,-4.1393,-4.1437,-4.1519,-4.1582,-4.1644,-4.1725,-4.1779,-4.184,-4.1866,-4.1897,-4.1926,-4.1978,-4.1992,-4.1997,-4.2018,-4.1946,-4.1946,-4.1946,-4.1946,-4.1484,-4.1538,-4.1573,-4.1664,-4.1711,-4.1789,-4.1871,-4.1887,-4.1967,-4.1959,-4.1981,-4.1965,-4.2002,-4.2023,-4.1946,-4.1946,-4.1946,-4.1946,-4.1946,-4.1512,-4.1545,-4.1587,-4.1684,-4.1756,-4.182,-4.1895,-4.1936,-4.1975,-4.1997,-4.2032,-4.2032,-4.2036,-4.2012,-4.2012,-4.2012,-4.2012,-4.2013,-4.2013,-4.1522,-4.157,-4.1628,-4.1711,-4.1758,-4.1826,-4.1911,-4.1959,-4.2022,-4.2046,-4.2046,-4.2068,-4.1999,-4.1978,-4.2016,-4.2015,-4.2015,-4.2014,-4.2014,-4.1592,-4.1583,-4.1672,-4.1719,-4.1822,-4.189,-4.1943,-4.2038,-4.2084,-4.212,-4.214,-4.2082,-4.2092,-4.2088,-4.2071,-4.213,-4.213,-4.213,-4.213,-4.1613,-4.1623,-4.1724,-4.1797,-4.1874,-4.1931,-4.2032,-4.21,-4.2169,-4.22,-4.2199,-4.2182,-4.2176,-4.2189,-4.2183,-4.2168,-4.2251,-4.2251,-4.2251,-4.1657,-4.1677,-4.1753,-4.182,-4.1905,-4.1976,-4.2073,-4.2156,-4.2233,-4.2257,-4.2226,-4.2221,-4.2194,-4.2183,-4.22,-4.2189,-4.2163,0,0]},{"header":{"parameterUnit":"m.s-1","parameterCategory":1,"la1":30.2992,"la2":30.254,"lo1":-89.0895,"lo2":-89.0443,"dy":0.0025,"dx":0.0025,"nx":19,"ny":19,"refTime":"2026-03-07T09:00:00:Z","depth":0,"parameterNumber":3,"parameterNumberName":"V-component_of_WINDS"},"data":[0,0,0,3.3147,3.3149,3.3247,3.3247,3.3363,3.3364,0,0,0,0,0,0,0,0,0,0,0,3.3112,3.3113,3.3147,3.3149,3.3246,3.3247,3.3363,3.3364,0,0,0,0,0,0,0,0,0,0,0,3.3112,3.3113,3.3114,3.315,3.3246,3.3247,3.3363,3.3293,0,0,0,0,0,0,0,0,0,0,3.32,3.3161,3.3113,3.3114,3.315,3.3246,3.3247,3.3289,3.3297,3.3316,0,3.333,0,3.3349,3.3371,3.3372,0,0,0,3.3154,3.3155,3.3187,3.3114,3.3151,3.3246,3.3204,3.3294,3.3302,3.3326,3.3331,3.3336,3.3351,3.3372,3.3373,3.3466,3.3467,0,0,3.3148,3.3126,3.3181,3.3192,3.3175,3.3201,3.3207,3.3299,3.3304,3.3332,3.3339,3.3353,3.3373,3.3374,3.3466,3.3467,0,0,0,3.313,3.3122,3.3152,3.3187,3.3205,3.3203,3.3211,3.33,3.3311,3.334,3.3354,3.3373,3.3375,3.3466,3.3466,3.3458,0,0,0,3.3127,3.3112,3.315,3.3137,3.3203,3.3253,3.3209,3.3305,3.3316,3.3353,3.3374,3.3376,3.3466,3.3466,3.3457,3.3457,0,0,0,3.3108,3.311,3.3122,3.3136,3.3177,3.3252,3.3269,3.3308,3.3324,3.3372,3.3376,3.3466,3.3466,3.3457,3.3456,3.3477,0,0,0,3.3081,3.311,3.3121,3.316,3.3176,3.3246,3.3269,3.3322,3.3362,3.3374,3.3466,3.3466,3.3457,3.3456,3.3476,3.349,3.3494,0,0,3.3106,3.3112,3.3137,3.315,3.3212,3.3233,3.3295,3.3351,3.3376,3.3435,3.3438,3.3457,3.3456,3.3477,3.352,3.3523,0,0,0,3.3137,3.3155,3.3176,3.3214,3.3259,3.3298,3.3348,3.337,3.3422,3.3401,3.3471,3.3471,3.3484,3.3491,3.3494,3.3507,3.3469,3.3469,3.3469,3.3138,3.317,3.3214,3.3259,3.3295,3.3349,3.3382,3.342,3.3439,3.3456,3.3473,3.3496,3.3504,3.3506,3.352,3.3483,3.3483,3.3483,3.3483,3.3177,3.3208,3.3237,3.329,3.3324,3.3369,3.3424,3.3437,3.3485,3.3484,3.3497,3.3493,3.3508,3.3522,3.3482,3.3482,3.3482,3.3482,3.3483,3.3182,3.3202,3.323,3.3291,3.3335,3.338,3.3426,3.3455,3.3483,3.3496,3.3519,3.3519,3.3524,3.3505,3.3505,3.3505,3.3505,3.3505,3.3505,3.3175,3.3207,3.3242,3.3296,3.3327,3.3371,3.3429,3.346,3.3502,3.352,3.352,3.3539,3.3503,3.3494,3.3507,3.3506,3.3506,3.3506,3.3506,3.3202,3.3202,3.3256,3.3287,3.3356,3.34,3.3438,3.35,3.3531,3.3553,3.3572,3.354,3.3548,3.3547,3.3539,3.3563,3.3563,3.3563,3.3563,3.3206,3.3215,3.3279,3.3328,3.3379,3.342,3.3484,3.3532,3.358,3.3602,3.3603,3.3596,3.3593,3.3603,3.36,3.3594,3.3631,3.3631,3.3631,3.3226,3.3242,3.3288,3.3337,3.3395,3.3444,3.3506,3.3562,3.3617,3.3635,3.362,3.3617,3.3606,3.36,3.3615,3.361,3.3599,0,0]}]]